Location: *
(40.0124°S, 175.6727°E)
Time: 04:45:05
(UTC+00:00)

Cosmos 1072 Rocket - Pass Details

Date: 08 August 2025
Orbit: 947 x 1008 km, 82.9° (Epoch: 14 December)

Event Time Altitude Azimuth Distance (km) Brightness Sun altitude
Rises 17:30:19 0° 190° (S) 3,700 7.4 -20.1°
Reaches altitude 10° 17:32:52 10° 192° (SSW) 2,737 6.7 -19.6°
Maximum altitude 17:39:06 71° 274° (W) 1,022 4.4 -18.4°
Drops below altitude 10° 17:45:10 10° 356° (N) 2,674 6.8 -17.3°
Sets 17:47:38 0° 358° (N) 3,609 7.5 -16.8°
